SCP
1 1 1 1 1 1 1 1 1 0 0 0 0 0 0 0 0 0 0 0 0 0 0 0 0 0 0 0 0 0 0 0 0 0 0 0 0 0 0 0 0 0 0
1 1 1 1 1 1 1 1 1 0 0 0 0 0 0 0 0 0 0 0 0 0 0 0 0 0 0 0 0 0 0 0 0 0 0 0 0 0 0 0 0 0 0
2 2 1 1 1 1 1 1 1 0 0 0 0 0 0 0 0 0 0 0 0 0 0 0 0 0 0 0 0 0 0 0 0 0 0 0 0 0 0 0 0 0 0
2 2 2 1 1 1 1 1 1 0 0 0 0 0 0 0 0 0 0 0 0 0 0 0 0 0 0 0 0 0 0 0 0 0 0 0 0 0 0 0 0 0 0
2 2 2 2 1 1 1 1 1 1 0 0 0 0 0 0 0 0 0 0 0 0 0 0 0 0 0 0 0 0 0 0 0 0 0 0 0 0 0 0 0 0 0
2 2 2 2 2 1 1 1 1 1 0 0 0 0 0 0 0 0 0 0 0 0 0 0 0 0 0 0 0 0 0 0 0 0 0 0 0 0 0 0 0 0 0
3 3 2 2 2 2 1 1 1 1 1 0 0 0 0 0 0 0 0 0 0 0 0 0 0 0 0 0 0 0 0 0 0 0 0 0 0 0 0 0 0 0 0
4 3 3 3 2 2 2 1 1 1 1 0 0 0 0 0 0 0 0 0 0 0 0 0 0 0 0 0 0 0 0 0 0 0 0 0 0 0 0 0 0 0 0
4 4 3 3 2 2 2 2 1 1 1 0 0 0 0 0 0 0 0 0 0 0 0 0 0 0 0 0 0 0 0 0 0 0 0 0 0 0 0 0 1 0 0
4 4 4 3 2 2 2 2 1 1 1 0 0 0 0 0 0 0 0 0 0 0 0 0 0 0 0 0 0 0 0 0 0 0 0 0 0 0 0 0 0 0 0
4 4 4 3 3 2 2 2 2 1 1 0 0 0 0 0 0 0 0 0 0 0 0 0 0 0 0 0 0 0 0 0 0 0 0 0 0 0 0 0 0 0 0
3 3 3 3 3 2 2 2 2 1 1 0 0 0 0 0 0 0 0 0 0 0 0 0 0 0 0 0 0 0 0 0 0 0 0 0 0 0 0 0 0 0 0
3 3 3 3 3 2 2 2 1 1 1 1 0 0 0 0 0 0 0 0 0 0 0 0 0 0 0 0 0 0 0 0 0 0 0 0 0 0 0 0 0 0 0
3 2 3 3 3 3 2 2 1 1 1 1 0 0 0 0 0 0 0 0 0 0 0 0 0 0 0 0 0 0 0 0 0 0 0 0 0 0 0 0 0 0 0
3 3 2 3 3 3 2 2 1 1 1 1 0 0 0 0 0 0 0 0 0 0 0 0 0 0 0 0 0 0 0 0 0 0 0 0 0 0 0 0 0 0 0
4 3 3 3 3 3 3 2 1 1 1 1 1 0 0 0 0 0 0 0 0 0 0 0 0 0 0 0 0 0 0 0 0 0 0 0 0 0 0 0 0 0 0
5 4 3 3 3 3 2 2 2 1 1 1 1 1 1 0 0 0 0 0 0 0 0 0 0 0 0 0 0 0 0 0 0 0 0 0 0 0 0 0 0 0 0
5 4 3 3 3 3 2 2 2 2 1 1 1 1 1 1 0 0 0 0 0 0 0 0 0 0 0 0 0 0 0 0 0 0 0 0 0 0 0 0 0 0 1
5 4 4 4 3 3 3 3 2 2 1 1 1 1 1 1 1 0 0 0 0 0 0 0 0 0 0 0 0 0 0 0 0 0 0 0 0 0 0 0 0 1 1
6 6 5 5 4 3 3 3 2 2 2 2 1 1 1 1 1 1 1 0 0 0 0 0 0 0 0 0 0 0 0 0 0 0 0 0 0 0 0 0 0 0 0
8 8 7 5 4 4 4 3 2 2 2 1 2 2 2 1 1 1 1 0 0 0 0 0 0 0 0 0 0 0 0 0 0 0 0 0 0 0 0 0 0 0 0
8 8 7 5 4 4 3 3 2 2 1 1 2 2 2 2 1 1 1 0 0 0 0 0 0 0 0 0 0 0 0 0 0 0 0 0 0 0 0 0 0 0 0
6 6 5 5 4 3 3 2 2 1 1 1 2 2 2 2 2 1 1 1 0 0 0 0 0 0 0 0 0 0 0 0 0 0 0 0 0 0 0 0 0 0 0
4 3 3 3 3 3 3 3 2 2 2 2 2 2 2 2 2 2 1 1 1 0 0 0 0 0 0 0 0 0 0 0 0 0 0 0 0 0 0 0 0 0 0
3 3 2 2 2 3 3 3 3 3 2 2 2 2 2 2 2 2 2 1 1 0 0 0 0 0 0 0 0 0 0 0 0 0 0 0 0 0 0 0 0 0 0
3 2 2 2 3 3 3 4 4 4 3 3 2 2 2 2 2 2 2 1 1 1 0 0 0 0 0 0 0 0 0 0 0 0 0 0 0 0 0 0 0 0 0
Wind_Speed
9 11 17 18 18 18 18 17 17 16 16 16 16 16 16 16 16 15 15 14 13 13 13 13 13 13 14 14 15 15 15 15 15 15 15 15 15 16 16 16 15 11 16
13 13 18 18 18 18 18 17 17 16 16 15 15 15 15 15 15 14 14 14 13 13 13 13 13 13 14 14 14 14 15 15 15 15 15 14 15 15 15 15 14 10 16
16 13 16 18 18 18 18 17 17 16 16 15 15 15 14 14 14 14 14 14 13 13 13 13 13 13 14 14 14 14 14 14 15 15 14 7 10 15 15 15 16 15 15
16 11 14 18 18 19 18 17 17 16 16 15 15 14 14 14 14 14 14 13 13 13 13 13 13 13 13 13 13 13 13 13 14 13 6 5 7 14 15 15 15 15 15
14 11 14 20 19 19 18 17 17 16 16 15 14 14 14 14 14 14 13 13 13 12 12 12 13 12 12 12 12 11 10 11 12 10 6 5 6 13 15 15 15 15 14
13 11 15 20 20 19 18 18 17 16 15 15 15 14 14 13 13 13 13 13 13 12 12 12 12 11 11 11 10 9 9 11 10 6 6 5 5 12 15 15 14 14 14
13 10 14 20 20 19 19 18 17 16 16 15 15 14 14 13 13 13 13 12 12 12 12 11 11 10 10 9 9 8 8 11 7 6 5 5 6 12 14 14 13 13 13
15 12 13 20 20 19 19 18 17 17 16 15 14 14 14 13 13 13 12 12 12 11 11 11 10 9 9 8 7 7 8 11 9 8 5 4 8 11 13 13 12 12 12
14 12 10 11 15 18 19 18 17 17 16 15 14 14 14 13 13 12 12 12 11 11 11 10 9 8 8 7 6 7 8 10 6 5 7 4 9 12 13 13 12 12 12
12 11 10 9 8 9 11 17 17 17 16 15 14 14 14 13 12 12 11 10 11 10 10 9 8 7 6 6 6 7 8 9 5 4 3 5 11 12 13 12 12 12 12
12 10 10 9 8 8 8 13 14 15 15 14 12 14 11 5 5 7 9 10 10 9 9 8 7 6 5 5 6 7 7 3 5 3 3 8 11 12 12 12 11 11 11
15 12 10 11 10 9 9 7 5 6 7 6 4 6 4 4 4 6 8 10 10 9 8 7 6 4 3 2 3 6 3 4 4 3 4 11 11 12 12 11 11 10 10
17 15 12 12 11 9 6 6 4 3 4 4 5 5 4 3 3 3 2 4 4 5 3 3 2 1 1 1 2 2 3 3 2 3 5 11 11 11 11 11 11 10 10
15 14 13 12 11 9 8 7 5 4 4 4 5 5 4 3 3 3 2 2 2 1 2 1 1 2 2 2 3 4 4 3 3 2 5 12 10 11 11 11 11 10 10
14 14 14 13 12 10 8 6 7 6 6 5 4 5 5 4 4 4 3 3 3 2 2 2 2 2 2 2 3 5 5 6 5 4 4 11 11 10 11 11 11 10 10
14 13 12 12 11 11 8 7 6 6 6 5 5 5 6 5 5 4 4 3 3 3 3 3 3 3 2 2 3 5 6 6 5 5 4 7 11 11 10 11 11 11 11
15 13 11 11 10 11 9 8 6 6 6 5 5 5 6 5 6 5 4 3 3 3 3 2 2 2 2 2 3 3 4 5 5 5 4 3 5 9 10 10 10 11 11
13 13 12 12 11 10 8 6 5 5 6 5 5 4 6 6 6 5 4 3 3 2 2 2 2 2 1 2 2 2 3 4 5 5 4 4 3 4 7 11 10 10 11
13 13 12 11 11 10 8 6 5 4 5 5 5 4 5 6 6 5 3 3 3 2 2 2 2 2 2 2 2 2 3 4 4 5 5 5 5 4 4 7 11 11 11
11 11 11 10 9 9 7 6 4 4 3 3 4 5 6 5 6 5 3 3 3 3 2 2 2 2 2 2 1 2 1 2 3 4 5 5 4 5 5 4 4 6 11
10 10 11 11 9 8 7 6 6 4 3 3 4 5 6 6 6 5 4 3 3 3 3 4 3 2 1 2 3 2 2 1 1 2 3 3 4 5 5 5 4 3 4
11 10 10 11 12 10 7 6 5 5 3 3 3 4 5 6 5 5 5 4 3 3 3 3 3 2 1 2 3 2 2 3 2 1 2 3 4 3 5 6 5 5 4
10 11 11 11 11 10 9 6 5 4 3 2 3 3 4 5 5 5 5 4 4 3 3 3 4 4 2 1 2 4 3 3 2 2 2 3 4 3 4 4 6 6 6
9 9 9 10 10 9 9 9 10 7 5 5 4 4 4 5 5 5 5 5 4 3 3 3 3 3 4 1 0 1 2 4 3 1 2 1 3 4 4 4 5 6 6
8 8 8 8 8 8 9 10 9 6 4 4 4 5 4 4 5 5 5 5 4 3 3 3 4 3 3 3 2 1 1 1 2 2 1 2 2 3 3 4 4 4 5
6 7 7 8 8 8 9 9 9 8 7 7 7 6 4 3 3 4 5 5 4 4 4 4 4 4 3 3 2 2 2 2 2 2 2 2 2 3 2 3 4 4 4
Wind_Direction
148 152 149 144 138 133 129 125 121 118 115 112 110 108 106 106 106 107 107 106 105 106 106 106 106 107 108 109 110 111 113 114 114 113 114 115 114 113 112 110 107 105 109
146 151 149 145 140 136 133 131 127 124 121 118 115 113 111 110 109 110 109 108 107 107 108 108 108 109 110 110 111 112 114 114 113 113 113 115 114 114 114 113 112 114 112
140 145 146 144 142 138 136 135 132 130 127 124 120 117 116 115 114 113 112 110 108 108 109 110 109 110 110 110 111 113 113 112 111 109 107 101 110 115 116 115 114 113 111
138 141 145 144 142 140 139 138 136 133 131 128 125 122 120 119 117 116 115 113 113 112 112 112 112 111 111 111 112 113 114 114 112 110 103 102 112 117 115 114 114 114 113
136 139 147 144 143 142 141 140 139 136 134 132 129 127 125 123 121 120 118 117 116 116 115 115 113 112 112 112 112 111 114 113 109 104 99 95 103 119 117 116 116 115 114
136 140 147 144 144 143 143 142 141 139 138 135 132 131 129 127 125 123 120 120 120 120 118 117 116 114 113 112 110 107 107 112 105 103 101 100 107 121 120 119 118 117 116
139 142 147 146 145 145 145 145 144 142 140 138 136 134 132 130 128 125 123 123 124 124 123 121 121 119 117 113 108 102 108 118 112 110 104 101 116 124 123 122 120 119 120
143 143 147 148 148 148 148 148 148 146 144 142 141 138 136 134 132 130 128 126 127 128 128 127 127 124 120 114 108 98 108 123 118 120 111 110 123 125 126 125 124 124 123
143 143 145 149 151 152 152 151 150 149 148 147 144 142 141 139 137 135 133 131 131 132 133 134 131 128 126 119 111 101 109 124 117 125 129 123 130 130 130 130 129 129 127
145 149 147 148 149 150 153 154 153 153 152 152 150 148 148 146 144 141 138 139 138 139 140 139 136 132 128 119 109 104 110 117 120 123 122 140 140 137 136 135 133 132 132
153 156 153 151 149 148 152 159 157 157 159 158 157 158 151 140 141 144 150 149 147 147 147 146 144 142 130 115 109 103 102 114 120 120 132 150 148 144 142 140 139 138 138
161 164 162 159 157 157 162 151 152 155 157 153 156 154 142 146 160 160 166 160 157 157 157 160 163 156 123 97 98 100 103 123 124 135 152 155 154 150 147 146 146 145 143
165 165 166 166 165 166 156 154 156 150 153 156 161 159 154 156 166 159 159 163 162 164 160 169 174 159 146 137 127 132 140 137 142 153 161 162 159 156 153 152 152 152 151
164 166 168 171 170 169 160 163 163 159 164 167 174 169 159 158 162 160 166 171 171 168 171 170 189 220 216 179 163 156 148 150 152 145 168 168 166 163 161 160 160 159 158
168 169 173 172 171 165 161 168 169 170 172 172 174 175 165 160 165 167 174 179 189 186 179 185 188 195 184 153 150 151 152 155 161 160 171 176 174 172 170 170 169 168 166
170 170 171 170 169 163 164 168 170 172 169 166 170 174 169 162 162 163 168 178 188 184 177 178 176 168 161 144 140 147 158 161 170 169 173 180 183 181 180 179 178 177 174
168 167 167 167 165 164 166 171 167 166 162 162 167 168 163 158 159 158 159 172 181 173 164 149 143 128 133 125 125 143 154 168 171 177 177 178 186 191 188 187 188 188 187
165 166 170 171 166 163 163 163 157 157 157 159 161 162 160 157 153 149 152 171 174 156 144 138 126 110 112 121 137 156 154 167 174 184 184 185 187 195 199 197 197 197 197
167 165 167 168 166 163 155 148 143 144 153 154 155 154 156 151 146 142 152 166 157 135 135 146 122 134 138 140 157 158 163 168 174 188 194 195 197 198 198 207 205 203 206
165 164 165 160 162 158 149 139 132 131 141 148 152 154 153 151 145 139 146 153 138 128 128 125 125 120 138 152 136 122 178 186 175 185 196 197 201 203 199 206 206 213 215
163 163 162 159 162 160 156 152 152 156 157 157 160 158 153 152 148 140 140 139 136 143 152 146 125 114 94 109 82 39 358 326 200 200 196 192 204 206 195 202 203 204 219
166 165 166 166 167 169 164 159 155 152 160 163 162 157 158 156 153 151 146 146 147 139 137 134 123 118 87 114 121 98 19 343 326 221 194 199 205 199 204 207 204 203 213
168 172 175 173 169 167 157 143 133 118 113 131 153 164 172 162 155 148 149 144 146 146 152 152 139 134 134 71 133 141 149 218 288 319 241 211 200 199 210 207 206 209 212
176 172 173 172 170 166 158 157 157 159 168 179 172 170 171 164 155 150 148 145 148 148 153 158 144 139 134 128 63 143 169 161 155 287 318 277 223 216 212 213 210 210 208
171 172 171 168 168 167 165 164 164 165 168 156 152 158 164 162 157 153 147 142 144 146 151 144 131 127 132 142 147 139 110 110 131 142 244 298 295 250 223 219 214 211 207
163 165 165 167 171 170 169 167 167 167 163 156 161 165 167 162 158 160 148 142 143 143 149 145 137 133 131 130 132 132 146 158 187 160 185 233 252 269 245 227 218 215 209